www.pogodaiklimat.ru

Погода и климат >> Архив погоды >> Австралия >> Gingin Aero


ПОГОДА в Gingin Aero

  • Прогноз погоды в Gingin Aero
  • Монитор погоды в Gingin Aero
  • Климат города

АРХИВ ПОГОДЫ в Gingin Aero

Время (UTC), дата Ветер
(напр.,м/с)
 
Видим.   Явления Облачность Т
(С)
Тd
(С)
f
(%)
Тe
(С)
Тes
(С)
Комфортность P
(гПа)
Po
(гПа)
Тmin
(С)
Tmax
(С)
R
(мм)
R24
(мм)
S
(см)
10 18.05 В 3 н/о н/о +18.5 +3.6 37 +19 +19 1026.9 1018.0
12 18.05 ЮВ 3 н/о н/о +12.2 +3.2 54 +11 +11 1027.4 1018.4
13 18.05 ЮВ 3 н/о н/о +11.3 +3.1 57 +10 +10 1027.5 1018.5 +24.5
15 18.05 В 4 н/о н/о +12.9 +3.3 52 +11 +11 1026.9 1018.0
16 18.05 ЮВ 3 н/о н/о +12.4 +2.6 51 +11 +11 1026.8 1017.9
18 18.05 В 3 н/о н/о +9.4 +2.0 60 +8 +8 1026.5 1017.6
19 18.05 штиль 0 н/о н/о +8.9 +2.9 66 +8 +8 1026.8 1017.9
21 18.05 В 2 н/о н/о +6.1 +1.6 73 +4 +4 1027.3 1018.3
22 18.05 В 2 н/о н/о +7.9 +3.2 72 +7 +7 1027.5 1018.5
00 19.05 штиль 0 н/о н/о +11.2 +4.9 65 +11 +11 1028.2 1019.2
01 19.05 СВ 4 н/о н/о +16.3 +5.0 47 +16 +16 1028.6 1019.6 +4.5
03 19.05 СВ 5 н/о н/о +20.5 +3.7 33 +21 +21 комфорт 1027.6 1018.6
04 19.05 СВ 4 н/о н/о +21.4 +3.6 31 +22 +22 комфорт 1026.8 1017.9
06 19.05 В 3 н/о н/о +23.5 +2.9 26 +23 +23 комфорт 1025.3 1016.4
07 19.05 В 3 н/о н/о +24.2 +2.4 24 +23 +23 комфорт 1025.0 1016.1
09 19.05 ЮВ 4 н/о н/о +22.3 +3.4 29 +22 +22 комфорт 1025.0 1016.1
10 19.05 ЮВ 4 н/о н/о +18.4 +2.7 35 +19 +19 1025.4 1016.5
12 19.05 ЮВ 4 н/о н/о +13.0 +2.3 48 +12 +12 1026.6 1017.7
13 19.05 ЮВ 2 н/о н/о +10.6 +1.7 54 +10 +10 1027.0 1018.1 +24.7
15 19.05 ЮВ 2 н/о н/о +8.7 +1.4 60 +7 +7 1026.9 1018.0
16 19.05 штиль 0 н/о н/о +5.2 -0.4 67 +5 +5 1027.0 1018.1
18 19.05 ЮВ 2 н/о н/о +3.7 -1.3 70 +1 +1 1026.8 1017.9
19 19.05 В 1 н/о н/о +3.1 -1.1 74 +3 +3 1026.7 1017.8
21 19.05 В 1 н/о н/о +2.9 -1.1 75 +1 +1 1026.9 1018.0
22 19.05 ЮВ 2 н/о н/о +2.9 -1.3 74 0 0 1027.5 1018.5
00 20.05 Ю 2 н/о н/о +7.0 +2.3 72 +5 +5 1028.6 1019.6
01 20.05 В 3 н/о н/о +15.9 +3.4 43 +16 +16 1028.8 1019.8 +1.2
03 20.05 С 3 н/о н/о +21.4 +2.6 29 +21 +21 комфорт 1028.6 1019.6
04 20.05 С 4 н/о н/о +22.3 +1.9 26 +22 +22 комфорт 1027.8 1018.8
06 20.05 Ю 2 н/о н/о +24.1 +1.1 22 +23 +23 комфорт 1025.9 1017.0
07 20.05 ЮВ 3 н/о н/о +24.3 +1.2 22 +23 +23 комфорт 1025.7 1016.8
09 20.05 ЮВ 4 н/о н/о +22.8 +1.8 25 +22 +22 комфорт 1025.4 1016.5
10 20.05 ЮВ 4 н/о н/о +18.8 +1.8 32 +19 +19 1025.7 1016.8
12 20.05 ЮВ 3 н/о н/о +11.5 +0.9 48 +10 +10 1026.7 1017.8
13 20.05 ЮВ 2 н/о н/о +10.2 +1.1 53 +9 +9 1026.9 1018.0 +24.7
15 20.05 СВ 3 н/о н/о +7.8 +0.1 58 +6 +6 1026.5 1017.6
16 20.05 СВ 1 н/о н/о +6.3 -0.4 62 +6 +6 1026.2 1017.3
18 20.05 СВ 2 н/о н/о +9.6 +1.8 58 +8 +8 1026.3 1017.4
19 20.05 В 3 н/о н/о +6.9 +0.6 64 +4 +4 1026.4 1017.5
21 20.05 В 2 н/о н/о +3.7 -1.1 71 +2 +2 1026.5 1017.6
22 20.05 С 2 н/о н/о +9.6 +4.8 72 +8 +8 1027.1 1018.2
00 21.05 СВ 4 н/о н/о +15.8 +6.3 53 +15 +15 1028.3 1019.3
01 21.05 СВ 4 н/о н/о +18.4 +6.6 46 +18 +18 1028.7 1019.7 +3.4
03 21.05 С 6 н/о н/о +22.3 +6.1 35 +23 +23 комфорт 1027.6 1018.6
04 21.05 С 5 н/о н/о +23.2 +5.6 32 +24 +24 комфорт 1026.4 1017.5
06 21.05 СВ 6 н/о н/о +24.9 +3.5 25 +24 +24 комфорт 1024.1 1015.2
07 21.05 СВ 6 н/о н/о +25.1 +2.5 23 +24 +24 комфорт 1023.6 1014.7
09 21.05 В 4 н/о н/о +23.2 +2.1 25 +23 +23 комфорт 1023.5 1014.6
10 21.05 В 3 н/о н/о +17.9 +2.6 36 +18 +18 1023.9 1015.0
12 21.05 В 2 н/о н/о +11.7 +1.4 49 +11 +11 1024.8 1015.9
13 21.05 В 2 н/о н/о +9.7 +1.4 56 +9 +9 1025.0 1016.1 +26.0
15 21.05 Ю 2 н/о н/о +9.0 +0.7 56 +8 +8 1025.0 1016.1
16 21.05 В 3 н/о н/о +9.3 +1.9 60 +7 +7 1024.5 1015.6
18 21.05 В 3 н/о н/о +9.5 +2.6 62 +8 +8 1024.2 1015.3
19 21.05 В 2 н/о н/о +9.1 +2.4 63 +8 +8 1024.0 1015.1
21 21.05 СВ 4 н/о н/о +15.0 +3.5 46 +14 +14 1023.9 1015.0
22 21.05 СВ 5 н/о н/о +15.4 +3.2 44 +14 +14 1024.0 1015.1
00 22.05 СВ 4 н/о н/о +16.3 +3.4 42 +16 +16 1024.4 1015.5
01 22.05 С 6 н/о н/о +19.3 +3.9 36 +19 +19 1024.7 1015.8 +7.2
03 22.05 С 6 н/о н/о +23.4 +3.9 28 +23 +23 комфорт 1023.7 1014.8
04 22.05 С 5 н/о н/о +24.9 +3.5 25 +24 +24 комфорт 1022.6 1013.7
06 22.05 С 5 н/о н/о +26.9 -0.2 17 +25 +25 комфорт 1020.3 1011.4
07 22.05 СВ 3 н/о н/о +27.3 -1.6 15 +25 +25 комфорт 1020.0 1011.1
09 22.05 В 2 н/о н/о +25.1 -0.1 19 +24 +24 комфорт 1020.1 1011.2
10 22.05 В 2 н/о н/о +18.9 +0.5 29 +20 +20 1020.4 1011.5
12 22.05 штиль 0 н/о н/о +14.6 +2.5 44 +15 +15 1021.2 1012.3
13 22.05 В 2 н/о н/о +11.0 +0.7 49 +11 +11 1021.5 1012.6 +27.9
15 22.05 В 2 н/о н/о +8.8 0.0 54 +8 +8 1021.4 1012.5
16 22.05 В 2 н/о н/о +7.2 -0.5 58 +6 +6 1021.1 1012.2
18 22.05 СВ 2 н/о н/о +8.8 +0.3 55 +8 +8 1020.5 1011.6
19 22.05 В 2 н/о н/о +8.8 +0.3 55 +8 +8 1020.3 1011.4
21 22.05 СВ 3 н/о н/о +8.5 +1.2 60 +6 +6 1019.8 1010.9
22 22.05 СВ 4 н/о н/о +13.7 +0.4 40 +12 +12 1019.8 1010.9
00 23.05 СВ 4 н/о н/о +16.8 +0.5 33 +16 +16 1020.3 1011.4
01 23.05 СВ 5 н/о н/о +19.4 +0.4 28 +19 +19 1020.4 1011.5 +6.4
03 23.05 С 4 н/о н/о +25.0 +0.5 20 +24 +24 комфорт 1019.5 1010.6
04 23.05 СВ 7 н/о н/о +25.9 -1.0 17 +24 +24 комфорт 1018.4 1009.5
06 23.05 С 5 н/о н/о +27.5 -3.3 13 +25 +25 комфорт 1016.2 1007.3
07 23.05 С 5 н/о н/о +27.7 -3.2 13 +25 +25 комфорт 1015.7 1006.9
09 23.05 С 3 н/о н/о +26.5 -1.3 16 +24 +24 комфорт 1015.1 1006.3
10 23.05 З 4 н/о н/о +20.1 +0.5 27 +20 +20 1015.4 1006.6
12 23.05 В 2 н/о н/о +12.5 +0.9 45 +12 +12 1015.6 1006.8
13 23.05 штиль 0 н/о н/о +11.2 +0.3 47 +11 +11 1015.4 1006.6 +28.6
15 23.05 В 1 н/о н/о +8.6 -0.4 53 +9 +9 1014.8 1006.0
16 23.05 СВ 3 н/о н/о +9.2 +0.4 54 +8 +8 1014.0 1005.2
18 23.05 СВ 3 н/о н/о +12.7 +0.5 43 +12 +12 1012.6 1003.8
19 23.05 С 3 н/о н/о +13.0 +1.7 46 +12 +12 1012.4 1003.6
21 23.05 С 5 н/о н/о +16.3 +0.8 35 +16 +16 1011.8 1003.0
22 23.05 С 6 н/о н/о +17.2 +1.2 34 +16 +16 1011.5 1002.7
00 24.05 С 5 н/о н/о +17.4 +1.0 33 +17 +17 1011.5 1002.7
01 24.05 С 6 н/о н/о +19.9 +0.9 28 +20 +20 1011.2 1002.4 +7.9
03 24.05 С 8 н/о н/о +25.4 +2.2 22 +24 +24 комфорт 1009.5 1000.7
04 24.05 С 8 н/о н/о +26.4 +3.0 22 +25 +25 комфорт 1008.1 999.3
06 24.05 С 9 н/о н/о +27.7 +4.1 22 +26 +26 жарко 1004.7 995.9
07 24.05 С 9 н/о н/о +27.8 +5.4 24 +27 +27 жарко 1003.4 994.7
09 24.05 С 6 н/о н/о +26.9 +7.9 30 +27 +27 жарко 1001.2 992.5
10 24.05 С 6 н/о н/о +26.6 +8.1 31 +27 +27 жарко 1000.0 991.3
12 24.05 С 7 н/о н/о +17.6 +14.9 84 +17 +17 1000.6 991.9
13 24.05 С 8 н/о туман местами н/о +17.6 +15.8 89 +17 +17 998.5 989.8 +28.4
15 24.05 СЗ 6 н/о н/о +17.3 +16.3 94 +17 +17 999.1 990.4
16 24.05 СЗ 7 н/о в посл. час дождь {туман} н/о +15.6 +13.4 87 +14 +14 1000.0 991.3
18 24.05 С 4 н/о н/о +14.4 +12.8 90 +13 +13 999.5 990.8
19 24.05 С 4 н/о {туман} н/о +14.4 +12.8 90 +13 +13 999.2 990.5
21 24.05 С 5 н/о н/о +13.3 +12.0 92 +11 +11 999.9 991.2
22 24.05 С 6 н/о {туман} н/о +13.4 +11.5 88 +11 +11 1000.1 991.4
00 25.05 С 4 н/о н/о +13.4 +12.1 92 +12 +12 1001.0 992.3
01 25.05 С 5 н/о {туман} н/о +13.4 +11.8 90 +11 +11 1001.6 992.9 +13.3
03 25.05 С 4 н/о н/о +14.5 +12.0 85 +13 +13 1002.4 993.7
04 25.05 СЗ 9 н/о в посл. час дождь {туман} н/о +18.0 +9.6 58 +17 +17 1001.6 992.9
06 25.05 СЗ 9 н/о н/о +17.3 +10.9 66 +16 +16 1001.1 992.4
07 25.05 СЗ 8 н/о {осадки} н/о +17.0 +10.8 67 +16 +16 1001.4 992.7 2
09 25.05 СЗ 7 н/о н/о +14.4 +11.4 82 +12 +12 1002.5 993.8

 

Местоположение метеостанции Gingin Aero (Западная Австралия, Австралия): широта -31.47 долгота 115.87 высота над уровнем моря 75 м.

В архиве по умолчанию представлена погода в Gingin Aero за последнюю неделю. Архивные данные за месяц целиком и за предыдущие месяцы, начиная с января 2011 года, Вы можете получить, выбрав интересующий диапазон дат из раскрывающегося списка и нажав кнопку "Ввод!".


*Определитесь, кто Вы:
робот инопланетянин человек

Внимание! Время в таблицах - всемирное. Для получения местного времени необходимо прибавить поправку, которая в Gingin Aero равна 8 ч.

Смотрите также архив погоды в соседних городах и на ближайших метеорологических станциях:

Погода в Bullsbrook Pearce Amo (Западная Австралия, Австралия) (26 км)
Погода в Wanneroo (Западная Австралия, Австралия) (35 км)
Погода в Mount Lawley Perth Metro (Западная Австралия, Австралия) (50 км)
Погода в Perth (Западная Австралия, Австралия) (52 км)
Погода в Swanbourne (Западная Австралия, Австралия) (54 км)
Погода в Goosebery Hill (Западная Австралия, Австралия) (56 км)
Погода в Kalamunda Bickley (Западная Австралия, Австралия) (66 км)
Погода в Perth Jandakot Airport (Западная Австралия, Австралия) (70 км)
Погода в Rottnest Island (Западная Австралия, Австралия) (70 км)
Погода в Garden Island Airpoet (Западная Австралия, Австралия) (86 км)

Пояснения к столбцам:

Ветер - указаны скорость ветра в м/с - средняя за 10 мин, порывы в срок и между сроками (в фигурных скобках) и направление, откуда дует ветер: С - северный, СВ - северо-восточный, В - восточный, ЮВ - юго-восточный, Ю - южный, ЮЗ - юго-западный, З - западный, СЗ - северо-западный.
Видимость - горизонтальная дальность видимости в метрах или километрах. При видимости от 1 до 10 км при отсутствии осадков обычно наблюдается дымка, при ухудшении видимости до 1 км и менее - туман. В сухую погоду видимость может ухудшаться дымом, пылью или мглою.
Явления - указаны атмосферные явления, наблюдавшиеся в срок или в последний час перед сроком; фигурными скобками обозначены явления, наблюдавшиеся между сроками (за 1-3 часа до срока); квадратными скобками обозначены град или гололедные отложения с указанием их диаметра в мм.
Облачность - указаны через наклонную черту общая и нижняя облачность в баллах и высота нижней границы облаков в метрах; квадратными скобками обозначены формы облаков: Ci - перистые, Cs - перисто-слоистые, Cc - перисто-кучевые, Ac - высококучевые, As - высокослоистые, Sc - слоисто-кучевые, Ns - слоисто-дождевые, Cu - кучевые, Cb - кучево-дождевые. Подробнее классификацию облаков см. в Атласе облаков (PDF).
T - Температура воздуха - температура, измеренная на высоте 2 м над землей.
Td - Температура точки росы - температура, при понижении до которой содержащийся в воздухе водяной пар достигнет насыщения.
f - Относительная влажность воздуха - влажноcть воздуха, измеренная на высоте 2 м над землей.
Te - Эффективная температура - температура, которую ощущает одетый по сезону человек в тени. Характеристика душности погоды. При расчете учитывается влияние влажности воздуха и скорости ветра на теплоощущения человека.
Tes - Эффективная температура на солнце - температура, которую ощущает человек, с поправкой на солнечный нагрев. Характеристика знойности погоды. Зависит от высоты солнца над горизонтом, облачности и скорости ветра. Ночью, в пасмурную погоду, а также при ветре 12 м/с и более поправка равна нулю.
P - Атмосферное давление - приведенное к уровню моря атмосферное давление.
Po - Атмосферное давление - измеренное на уровне метеостанции атмосферное давление.
Tmin - Минимальная температура - минимум температуры воздуха на высоте 2 м над землей.
Tmax - Максимальная температура - максимум температуры воздуха на высоте 2 м над землей.
R - Количество осадков - Количество выпавших осадков за период времени, мм. При наведении курсора мыши на число - период времени, за который выпало указанное количество осадков.
R24 - Количество осадков - Количество выпавших осадков за 24 часа, мм.
S - Снежный покров - Высота снежного покрова, см. При наведении курсора мыши на число - состояние снежного покрова и степень покрытия местности в баллах.